CW1509 Weather Reports


Display with metric or nautical units.
time (UTC)temp
F
wind
direction
speed
MPH
gust
MPH
rain 1hr
in
rain 24hr
in
rain mn
in
humidity
%
barometer
mb
20260508233931 64 139 0.0 4.0 0.00 0.06 0.01 52 1006.8
20260508233432 64 209 2.0 4.0 0.00 0.06 0.01 51 1006.9
20260508232913 64 205 1.0 2.0 0.00 0.06 0.01 51 1006.9
20260508232432 65 261 0.0 4.0 0.00 0.06 0.01 51 1006.9
20260508231913 65 255 1.0 4.0 0.00 0.06 0.01 51 1006.9
20260508231433 65 216 2.0 5.0 0.00 0.06 0.01 50 1007.0
20260508230933 65 186 2.0 4.0 0.00 0.06 0.01 51 1006.9
20260508230415 65 175 1.0 3.0 0.00 0.06 0.01 52 1007.0
20260508225934 65 221 1.0 6.0 0.00 0.06 0.01 50 1006.9
20260508225449 65 236 2.0 6.0 0.00 0.06 0.01 49 1007.0
20260508224913 65 248 2.0 5.0 0.00 0.06 0.01 50 1007.0
20260508224428 65 20 2.0 4.0 0.00 0.06 0.01 51 1006.9
20260508223949 65 159 0.0 5.0 0.00 0.06 0.01 52 1007.0
20260508223428 65 249 3.0 5.0 0.00 0.06 0.01 53 1007.1
20260508222930 65 176 1.0 5.0 0.00 0.06 0.01 53 1007.0
20260508222430 65 252 1.0 7.0 0.00 0.06 0.01 53 1006.9
20260508221928 65 219 2.0 4.0 0.00 0.06 0.01 52 1007.0
20260508221428 65 26 1.0 3.0 0.00 0.06 0.01 51 1007.0
20260508220928 65 205 1.0 4.0 0.00 0.06 0.01 53 1007.1
20260508220428 65 253 2.0 5.0 0.00 0.06 0.01 53 1007.1
20260508215929 65 235 2.0 6.0 0.00 0.06 0.01 55 1007.1
20260508215428 65 211 0.0 4.0 0.00 0.06 0.01 55 1007.0
20260508214930 65 175 0.0 3.0 0.00 0.06 0.01 54 1007.0
20260508214430 65 260 1.0 5.0 0.00 0.06 0.01 54 1007.0
20260508213951 64 238 2.0 5.0 0.00 0.06 0.01 54 1007.0
20260508213428 64 208 2.0 5.0 0.00 0.06 0.01 52 1007.1
20260508212949 64 265 0.0 5.0 0.00 0.06 0.01 52 1007.1
20260508212429 64 181 2.0 5.0 0.00 0.06 0.01 51 1007.1
20260508211929 64 175 2.0 4.0 0.00 0.06 0.01 55 1007.3
20260508211430 64 188 2.0 4.0 0.00 0.06 0.01 53 1007.2
20260508210929 64 253 2.0 4.0 0.00 0.06 0.01 54 1007.2
20260508210430 64 219 2.0 7.0 0.00 0.06 0.01 53 1007.3
20260508205931 64 259 2.0 7.0 0.00 0.06 0.01 54 1007.4
20260508205413 65 192 4.0 6.0 0.00 0.06 0.01 53 1007.4
20260508204933 65 210 3.0 6.0 0.00 0.06 0.01 56 1007.5
20260508204453 65 277 2.0 6.0 0.00 0.06 0.01 56 1007.5
20260508203914 64 194 2.0 6.0 0.00 0.06 0.01 55 1007.5
20260508203436 65 181 4.0 7.0 0.00 0.06 0.01 56 1007.6
20260508202936 64 180 3.0 7.0 0.00 0.06 0.01 55 1007.6
20260508202435 64 221 3.0 8.0 0.00 0.06 0.01 58 1007.7
20260508201955 64 192 3.0 7.0 0.00 0.06 0.01 57 1007.7
20260508201453 64 207 2.0 7.0 0.00 0.06 0.01 57 1007.8
20260508200914 64 176 3.0 7.0 0.00 0.06 0.01 58 1008.0
20260508200416 64 133 1.0 6.0 0.00 0.06 0.01 59 1007.9
20260508195915 64 198 3.0 7.0 0.00 0.06 0.01 56 1008.0
20260508195414 64 189 3.0 7.0 0.00 0.06 0.01 56 1008.1
20260508194934 64 254 3.0 5.0 0.00 0.06 0.01 57 1008.1
20260508194453 63 117 1.0 4.0 0.00 0.06 0.01 57 1008.1
20260508193932 63 261 2.0 6.0 0.00 0.06 0.01 56 1008.2
20260508193415 63 200 3.0 6.0 0.00 0.06 0.01 58 1008.3
20260508192916 63 224 1.0 7.0 0.00 0.06 0.01 57 1008.3
20260508192416 64 78 1.0 5.0 0.00 0.06 0.01 58 1008.4
20260508191916 64 167 1.0 6.0 0.00 0.06 0.01 57 1008.5
20260508191417 64 202 1.0 8.0 0.00 0.06 0.01 58 1008.6
20260508190916 64 128 5.0 8.0 0.00 0.06 0.01 58 1008.7
20260508190417 64 191 2.0 6.0 0.00 0.06 0.01 60 1008.7
20260508185916 64 187 4.0 7.0 0.00 0.06 0.01 58 1008.8
20260508185418 64 158 3.0 7.0 0.00 0.06 0.01 57 1008.9
20260508184936 64 217 4.0 7.0 0.00 0.06 0.01 58 1009.0
20260508184415 64 121 1.0 8.0 0.00 0.06 0.01 58 1009.1
20260508183914 64 142 2.0 8.0 0.00 0.06 0.01 59 1009.1
20260508183414 64 214 2.0 6.0 0.00 0.06 0.01 55 1009.1
20260508182915 64 180 2.0 6.0 0.00 0.06 0.01 56 1009.2
20260508182431 64 148 2.0 7.0 0.00 0.06 0.01 56 1009.2
20260508181951 64 248 3.0 7.0 0.00 0.06 0.01 54 1009.4
20260508181430 64 169 0.0 5.0 0.00 0.06 0.01 54 1009.2
20260508180931 64 243 0.0 5.0 0.00 0.06 0.01 51 1009.5
20260508180430 64 222 2.0 5.0 0.00 0.06 0.01 49 1009.5
20260508175931 64 211 2.0 6.0 0.00 0.06 0.01 50 1009.5
20260508175431 64 285 2.0 7.0 0.00 0.06 0.01 45 1009.6
20260508174931 64 256 2.0 7.0 0.00 0.06 0.01 44 1009.6
20260508174430 64 178 2.0 5.0 0.00 0.06 0.01 45 1009.7
20260508173931 64 199 2.0 5.0 0.00 0.06 0.01 45 1009.7
20260508173429 64 158 1.0 4.0 0.00 0.06 0.01 48 1009.7
20260508172926 63 223 1.0 6.0 0.00 0.06 0.01 45 1010.0
20260508172427 64 257 3.0 6.0 0.00 0.06 0.01 46 1010.2
20260508171923 63 210 1.0 5.0 0.00 0.06 0.01 47 1010.3
20260508171423 63 147 2.0 5.0 0.00 0.06 0.01 48 1010.3
20260508170943 63 178 2.0 5.0 0.00 0.06 0.01 50 1010.3
20260508170423 63 292 1.0 5.0 0.00 0.06 0.01 50 1010.5
20260508165924 63 221 1.0 5.0 0.00 0.06 0.01 50 1010.5
20260508165425 63 258 2.0 5.0 0.00 0.06 0.01 49 1010.6
20260508164925 63 177 1.0 7.0 0.00 0.06 0.01 48 1010.6
20260508164425 63 209 1.0 7.0 0.00 0.06 0.01 49 1010.6
20260508163926 62 219 2.0 5.0 0.00 0.06 0.01 49 1010.7
20260508163446 62 133 1.0 3.0 0.00 0.06 0.01 52 1010.7
20260508162915 61 360 1.0 5.0 0.00 0.06 0.01 54 1010.7
20260508162415 61 360 3.0 5.0 0.00 0.06 0.01 50 1010.8
20260508161915 60 360 2.0 5.0 0.00 0.06 0.01 53 1011.0
20260508161416 60 216 2.0 5.0 0.00 0.06 0.01 52 1011.0
20260508160916 59 360 1.0 8.0 0.00 0.06 0.01 62 1011.0
20260508160416 59 360 3.0 8.0 0.00 0.06 0.01 59 1011.0
20260508155935 58 360 1.0 5.0 0.00 0.06 0.01 62 1011.1
20260508155414 58 360 1.0 5.0 0.00 0.06 0.01 64 1011.1
20260508154915 57 360 0.0 5.0 0.00 0.06 0.01 61 1011.1
20260508154416 57 360 1.0 5.0 0.00 0.06 0.01 66 1011.1
20260508153917 57 360 2.0 6.0 0.00 0.06 0.01 69 1011.2
20260508153416 56 360 1.0 4.0 0.00 0.06 0.01 73 1011.1
20260508152916 56 360 0.0 3.0 0.00 0.06 0.01 76 1011.1
20260508152436 56 360 1.0 4.0 0.00 0.06 0.01 75 1011.1
20260508151935 55 360 1.0 5.0 0.00 0.06 0.01 76 1011.1
20260508151437 55 360 3.0 5.0 0.00 0.06 0.01 76 1011.1
20260508150915 55 360 2.0 3.0 0.00 0.06 0.01 77 1011.2
20260508150415 55 360 1.0 3.0 0.00 0.06 0.01 78 1011.2
20260508145916 55 360 1.0 3.0 0.00 0.06 0.01 79 1011.0
20260508144916 54 360 3.0 5.0 0.00 0.06 0.01 80 1011.0
20260508144416 54 360 0.0 5.0 0.00 0.06 0.01 83 1011.0
20260508143916 53 360 2.0 5.0 0.00 0.06 0.01 83 1011.0
20260508143435 53 360 0.0 2.0 0.00 0.06 0.01 83 1011.1
20260508142916 53 360 0.0 4.0 0.00 0.06 0.01 83 1011.0
20260508142417 52 360 2.0 4.0 0.00 0.06 0.01 84 1011.2
20260508141917 52 360 0.0 3.0 0.00 0.06 0.01 85 1011.2
20260508141418 52 360 0.0 4.0 0.00 0.06 0.01 86 1011.3
20260508140919 52 360 0.0 4.0 0.00 0.06 0.01 86 1011.4
20260508140419 52 360 0.0 3.0 0.00 0.06 0.01 87 1011.6
20260508135919 51 360 1.0 5.0 0.00 0.06 0.01 87 1011.6
20260508135440 51 360 0.0 5.0 0.00 0.06 0.01 88 1011.6
20260508134917 51 360 1.0 3.0 0.00 0.06 0.01 89 1011.5
20260508134417 51 360 0.0 3.0 0.00 0.06 0.01 90 1011.6
20260508133916 50 360 1.0 5.0 0.00 0.06 0.01 92 1011.6
20260508133417 50 360 2.0 5.0 0.00 0.06 0.01 92 1011.7
20260508132918 49 360 0.0 4.0 0.00 0.06 0.01 94 1011.7
20260508132416 48 360 0.0 4.0 0.00 0.06 0.01 94 1011.7
20260508131917 48 360 2.0 4.0 0.00 0.06 0.01 94 1011.6
20260508131418 48 360 0.0 0.0 0.00 0.06 0.01 94 1011.4
20260508130919 48 360 0.0 0.0 0.00 0.06 0.01 95 1011.5
20260508130440 47 360 0.0 0.0 0.00 0.06 0.01 95 1011.6
20260508125919 46 360 0.0 1.0 0.00 0.06 0.01 95 1011.7
20260508125419 46 360 0.0 2.0 0.00 0.06 0.01 95 1011.7
20260508124919 46 360 0.0 2.0 0.00 0.06 0.01 94 1011.7
20260508124421 46 360 0.0 3.0 0.00 0.06 0.01 94 1011.6
20260508123922 45 360 1.0 3.0 0.00 0.06 0.01 95 1011.7
20260508123423 45 360 0.0 0.0 0.00 0.06 0.01 94 1011.7
20260508122924 45 360 0.0 3.0 0.00 0.06 0.01 94 1011.6
20260508122425 44 360 1.0 3.0 0.00 0.06 0.01 94 1011.7
20260508121925 44 360 1.0 3.0 0.00 0.06 0.01 94 1011.6
20260508121427 44 360 1.0 3.0 0.00 0.06 0.01 94 1011.6
20260508120927 43 360 0.0 0.0 0.00 0.06 0.01 94 1011.7
20260508120429 43 360 0.0 0.0 0.00 0.06 0.01 94 1011.5
20260508115928 43 360 0.0 0.0 0.00 0.06 0.01 94 1011.5
20260508115428 42 360 0.0 0.0 0.00 0.06 0.01 94 1011.3
20260508114929 42 360 0.0 0.0 0.00 0.06 0.01 94 1011.3
20260508114429 41 360 0.0 0.0 0.00 0.06 0.01 94 1011.3
20260508113930 41 360 0.0 0.0 0.00 0.06 0.01 93 1011.2
20260508113430 41 360 0.0 0.0 0.00 0.06 0.01 93 1011.2
20260508112929 40 360 0.0 0.0 0.00 0.06 0.01 93 1011.3
20260508112430 40 360 0.0 0.0 0.00 0.06 0.01 93 1011.1
20260508111932 40 360 0.0 0.0 0.00 0.06 0.01 92 1011.2
20260508111433 40 360 0.0 0.0 0.00 0.06 0.01 92 1011.2
20260508110933 40 360 0.0 0.0 0.00 0.06 0.01 92 1011.2
20260508110453 40 360 0.0 0.0 0.00 0.06 0.01 92 1011.2
20260508105930 40 360 0.0 0.0 0.00 0.06 0.01 92 1011.1
20260508105431 40 360 0.0 0.0 0.00 0.06 0.01 92 1010.8
20260508104931 40 360 0.0 0.0 0.00 0.06 0.01 92 1010.8
20260508104448 40 360 0.0 0.0 0.00 0.06 0.01 92 1010.8
20260508103926 41 360 0.0 0.0 0.00 0.06 0.01 92 1010.9
20260508103427 41 360 0.0 0.0 0.00 0.06 0.01 92 1010.9
20260508102928 41 360 0.0 0.0 0.00 0.06 0.01 92 1010.9
20260508102427 41 360 0.0 0.0 0.00 0.06 0.01 92 1010.9
20260508101929 41 360 0.0 0.0 0.00 0.06 0.01 92 1010.9
20260508101428 41 360 0.0 0.0 0.00 0.06 0.01 92 1010.9
20260508100927 41 360 0.0 0.0 0.00 0.06 0.01 92 1010.9
20260508100429 41 360 0.0 0.0 0.00 0.06 0.01 92 1010.9
20260508095930 41 360 0.0 0.0 0.00 0.06 0.01 92 1011.0
20260508095449 41 360 0.0 0.0 0.00 0.06 0.01 92 1010.9
20260508094930 41 360 0.0 0.0 0.00 0.06 0.01 92 1010.9
20260508094431 41 360 0.0 0.0 0.00 0.06 0.01 92 1010.9
20260508093931 41 360 0.0 0.0 0.00 0.06 0.01 92 1010.9
20260508093431 41 360 0.0 0.0 0.00 0.06 0.01 92 1011.0
20260508092913 41 360 0.0 0.0 0.00 0.06 0.01 92 1011.0
20260508092433 41 360 0.0 0.0 0.00 0.06 0.01 92 1011.0
20260508091913 41 360 0.0 0.0 0.00 0.06 0.01 92 1011.0
20260508091414 41 360 0.0 0.0 0.00 0.06 0.01 91 1011.0
20260508090915 41 360 0.0 0.0 0.00 0.06 0.01 91 1011.0
20260508090655 41 360 0.0 0.0 0.00 0.06 0.01 91 1011.0
20260508085917 41 360 0.0 0.0 0.00 0.06 0.01 91 1011.0
20260508085417 41 360 0.0 0.0 0.00 0.06 0.01 91 1010.9
20260508084916 41 360 0.0 0.0 0.00 0.06 0.01 91 1011.0
20260508084437 41 360 0.0 0.0 0.00 0.06 0.01 91 1011.0
20260508083917 41 360 0.0 0.0 0.00 0.06 0.01 91 1011.0
20260508083418 41 360 0.0 0.0 0.00 0.06 0.01 90 1011.0
20260508082919 41 360 0.0 0.0 0.00 0.06 0.01 90 1011.0
20260508082419 41 360 0.0 0.0 0.00 0.06 0.01 90 1011.0
20260508081918 41 360 0.0 0.0 0.00 0.06 0.01 90 1011.1
20260508081419 41 360 0.0 0.0 0.00 0.06 0.01 90 1011.0
20260508080920 41 360 0.0 0.0 0.00 0.06 0.01 90 1011.0
20260508080419 41 360 0.0 0.0 0.00 0.06 0.01 90 1011.0
20260508075919 41 360 0.0 0.0 0.00 0.06 0.01 90 1011.1
20260508075419 41 360 0.0 0.0 0.00 0.06 0.01 90 1011.0
20260508074920 41 360 0.0 0.0 0.00 0.06 0.01 90 1011.1
20260508074420 42 360 0.0 0.0 0.00 0.06 0.01 90 1011.1
20260508073920 42 360 0.0 0.0 0.00 0.06 0.01 90 1011.0
20260508073421 42 360 0.0 0.0 0.00 0.06 0.01 90 1011.1
20260508072922 42 360 0.0 0.0 0.00 0.06 0.01 90 1011.1
20260508072423 42 360 0.0 0.0 0.00 0.06 0.01 89 1011.2
20260508071925 42 360 0.0 0.0 0.00 0.06 0.01 89 1011.2
20260508071424 42 360 0.0 0.0 0.00 0.06 0.01 89 1011.1
20260508070944 42 360 0.0 0.0 0.00 0.06 0.01 89 1011.2
20260508070423 42 360 0.0 0.0 0.00 0.06 0.01 89 1011.2
20260508065925 42 360 0.0 0.0 0.01 0.06 0.01 89 1011.3
20260508065424 42 360 0.0 0.0 0.01 0.06 0.01 89 1011.2
20260508064926 42 360 0.0 0.0 0.01 0.06 0.01 89 1011.2
20260508064426 42 360 0.0 0.0 0.01 0.06 0.01 89 1011.2
20260508063925 43 360 0.0 0.0 0.01 0.06 0.01 89 1011.2
20260508063427 43 360 0.0 0.0 0.01 0.06 0.01 89 1011.3
20260508062927 43 360 0.0 0.0 0.01 0.06 0.01 90 1011.3
20260508062430 43 360 0.0 0.0 0.01 0.06 0.01 90 1011.3
20260508061931 43 360 0.0 0.0 0.01 0.06 0.01 90 1011.3
20260508061433 43 360 0.0 0.0 0.01 0.06 0.01 90 1011.3
20260508060933 43 360 0.0 0.0 0.01 0.06 0.01 90 1011.4
20260508060433 43 360 0.0 0.0 0.01 0.06 0.01 90 1011.3
20260508055932 43 360 0.0 0.0 0.00 0.05 0.00 89 1011.4
20260508055433 43 360 0.0 0.0 0.00 0.05 0.00 89 1011.4
20260508054934 43 360 0.0 0.0 0.00 0.05 0.00 89 1011.6
20260508054430 43 360 0.0 0.0 0.00 0.05 0.00 90 1011.5
20260508053951 43 360 0.0 0.0 0.00 0.05 0.00 90 1011.6
20260508053429 43 360 0.0 0.0 0.00 0.05 0.00 90 1011.6
20260508052931 44 360 0.0 0.0 0.00 0.05 0.00 89 1011.5
20260508052432 44 360 0.0 0.0 0.00 0.05 0.00 89 1011.6
20260508051913 44 360 0.0 0.0 0.00 0.05 0.00 89 1011.5
20260508051415 44 360 0.0 0.0 0.00 0.05 0.00 89 1011.5
20260508050934 44 360 0.0 0.0 0.00 0.05 0.00 89 1011.6
20260508050431 44 360 0.0 0.0 0.00 0.05 0.00 89 1011.6
20260508045931 44 360 0.0 0.0 0.00 0.05 0.00 89 1011.6
20260508045414 44 360 0.0 0.0 0.00 0.05 0.00 89 1011.6
20260508044933 44 360 0.0 0.0 0.00 0.05 0.00 89 1011.5
20260508044414 44 360 0.0 0.0 0.00 0.05 0.00 89 1011.6
20260508043935 44 360 0.0 0.0 0.00 0.05 0.00 89 1011.6
20260508043416 44 360 0.0 0.0 0.00 0.05 0.00 89 1011.5
20260508042933 44 360 0.0 0.0 0.00 0.05 0.00 89 1011.5
20260508042453 44 360 0.0 0.0 0.00 0.05 0.00 89 1011.4
20260508041914 45 360 0.0 0.0 0.00 0.05 0.00 89 1011.5
20260508041433 45 360 0.0 0.0 0.00 0.05 0.00 89 1011.5
20260508040934 45 360 0.0 0.0 0.00 0.05 0.00 89 1011.6
20260508040414 45 360 0.0 0.0 0.00 0.05 0.05 89 1011.5
20260508035914 45 360 0.0 0.0 0.00 0.05 0.05 89 1011.5
20260508035415 45 360 0.0 0.0 0.00 0.05 0.05 89 1011.6
20260508034916 45 360 0.0 0.0 0.00 0.05 0.05 89 1011.5
20260508034416 45 360 0.0 0.0 0.00 0.05 0.05 89 1011.6
20260508033938 45 360 0.0 0.0 0.00 0.05 0.05 89 1011.6
20260508033437 45 360 0.0 0.0 0.00 0.05 0.05 89 1011.5
20260508032915 45 360 0.0 0.0 0.00 0.05 0.05 89 1011.4
20260508032415 45 360 0.0 0.0 0.00 0.05 0.05 88 1011.3
20260508031916 45 360 0.0 0.0 0.00 0.05 0.05 88 1011.3
20260508031416 45 360 0.0 0.0 0.00 0.05 0.05 88 1011.3
20260508030918 45 360 0.0 0.0 0.00 0.05 0.05 88 1011.3
20260508030420 45 360 0.0 0.0 0.00 0.05 0.05 88 1011.3
20260508025941 45 360 0.0 0.0 0.00 0.05 0.05 88 1011.3
20260508025420 45 360 0.0 0.0 0.00 0.05 0.05 87 1011.4
20260508024921 45 360 0.0 0.0 0.00 0.05 0.05 87 1011.4
20260508024441 46 360 0.0 0.0 0.00 0.05 0.05 87 1011.5
20260508023942 46 360 0.0 0.0 0.00 0.05 0.05 87 1011.3
20260508023420 46 360 0.0 0.0 0.00 0.05 0.05 87 1011.3
20260508022921 46 360 0.0 0.0 0.00 0.05 0.05 87 1011.4
20260508022429 46 360 0.0 0.0 0.00 0.05 0.05 87 1011.3
20260508021929 46 360 0.0 0.0 0.00 0.05 0.05 86 1011.3
20260508021450 46 360 0.0 0.0 0.00 0.05 0.05 86 1011.2
20260508020929 46 360 0.0 0.0 0.00 0.05 0.05 86 1011.2
20260508020432 46 360 0.0 0.0 0.00 0.05 0.05 86 1011.2
20260508015932 46 360 0.0 0.0 0.00 0.05 0.05 86 1011.1
20260508015414 46 360 0.0 0.0 0.00 0.05 0.05 86 1011.2
20260508014915 47 360 0.0 0.0 0.00 0.05 0.05 85 1011.1
20260508014416 47 360 0.0 0.0 0.00 0.05 0.05 85 1011.2
20260508013917 47 360 0.0 0.0 0.00 0.05 0.05 84 1011.1
20260508013438 47 360 0.0 0.0 0.00 0.05 0.05 83 1011.0
20260508012917 47 360 0.0 0.0 0.01 0.05 0.05 83 1010.9
20260508012417 47 360 0.0 0.0 0.03 0.05 0.05 83 1011.0
20260508011916 48 209 0.0 0.0 0.04 0.05 0.05 82 1011.0
20260508011418 48 360 0.0 0.0 0.05 0.05 0.05 82 1011.1
20260508010917 48 360 0.0 0.0 0.05 0.05 0.05 81 1011.1
20260508010418 48 360 0.0 0.0 0.05 0.05 0.05 81 1011.2
20260508005918 49 360 0.0 2.0 0.05 0.05 0.05 81 1011.1
20260508005419 49 360 0.0 3.0 0.05 0.05 0.05 81 1011.1
20260508004921 49 360 0.0 3.0 0.05 0.05 0.05 81 1011.0
20260508004422 49 160 1.0 3.0 0.05 0.05 0.05 80 1010.9
20260508003924 50 360 0.0 5.0 0.05 0.05 0.05 80 1011.0
20260508003424 50 360 1.0 11.0 0.05 0.05 0.05 79 1011.0
20260508002925 51 360 2.0 11.0 0.03 0.03 0.03 78 1011.1
20260508002425 51 360 4.0 11.0 0.02 0.02 0.02 75 1011.8
20260508001945 52 360 5.0 11.0 0.01 0.01 0.01 73 1011.9
20260508001444 52 360 4.0 8.0 0.00 0.00 0.00 70 1011.8
20260508000925 53 360 2.0 8.0 0.00 0.00 0.00 68 1011.6
20260508000426 54 360 2.0 5.0 0.00 0.00 0.00 66 1011.4
20260507235944 54 360 1.0 5.0 0.00 0.00 0.00 66 1011.4
20260507235425 54 360 0.0 5.0 0.00 0.00 0.00 63 1011.2
20260507234926 54 360 2.0 4.0 0.00 0.00 0.00 58 1011.2
20260507234427 55 360 1.0 5.0 0.00 0.00 0.00 58 1010.9